User: anonymous   Login
Location: ???? ???? ?????
(31.2680°N, 31.7283°E)
Time: 23:25:15
(UTC+00:00)
Language:

GPS 2-04 Rocket1 - Orbit

View from above orbital plane
View from above orbital plane
View from above satellite
View from above satellite

Ground track
Ground track

The orbit data is extracted from the following two-line orbital elements,

1 20303U 89085B   20272.21118678 +.00002605 +00000-0 +84610-4 0  9991
2 20303 035.6349 084.7799 0094464 009.5826 350.6679 15.27623626684320
Epoch (UTC): 28 September 2020 05:04:06
Eccentricity: 0.0094464
inclination: 35.6349°
perigee height: 418 km
apogee height: 548 km
right ascension of ascending node: 84.7799°
argument of perigee: 9.5826°
revolutions per day: 15.27623626
mean anomaly at epoch: 350.6679°
orbit number at epoch: 68432

The dashed part of the orbit path shows where the satellite is in the earth's shadow,  

DLR